Home > Weather > Palm Springs > Past weeks

Flag for USA Past Weather in Palm Springs, California, USA — Yesterday and Last 2 Weeks

Now
97 °F

Sunny.


Feels Like: 94 °F
Forecast: 82 / 109 °F
Wind: No wind

Location: Palm Springs Regional Airport

Current Time: Aug 29, 2016 at 11:03:29 AM

Latest Report: Aug 29, 2016 at 9:53 AM


Visibility: 10 mi

Pressure: 29.90 "Hg

Humidity: 19%

Dew Point: 49 °F

Location of Palm SpringsLocation

Past Weather in Palm Springs — Graph

°F

Palm Springs Temperature Yesterday

Maximum temperature yesterday: 105 °F (at 2:53 PM)
Minimum temperature yesterday: 77 °F (at 6:53 AM)
Average temperature yesterday: 92 °F

High & Low Weather Summary for the Past Weeks

 TemperatureHumidityPressure
High115 °F (Aug 15, 2:53 PM)52% (Aug 28, 6:53 AM)29.95 "Hg (Aug 28, 6:53 AM)
Low73 °F (Aug 27, 6:53 AM)4% (Aug 16, 1:53 PM)29.67 "Hg (Aug 16, 5:53 PM)
Average94 °F22%29.80 "Hg
* Reported Aug 14 9:53 AM — Aug 29 9:53 AM, Palm Springs, Weather by CustomWeather, © 2016

Note: Actual official high and low records may vary slightly from our data, if they occured in-between our weather recording intervals... More about our weather records

Advertising

Palm Springs Weather History for the Previous 24 Hours

Scroll right to see more
 ConditionsComfort  
Time TempWeatherWind HumidityBarometerVisibility
9:53 AM
Mon, Aug 29
97 °FSunny.No wind19%29.90 "Hg10 mi
8:53 AM92 °FSunny.No wind22%29.90 "Hg10 mi
7:53 AM89 °FSunny.12 mph21%29.90 "Hg10 mi
6:53 AM85 °FClear.12 mph24%29.88 "Hg10 mi
5:53 AM85 °FClear.7 mph26%29.87 "Hg10 mi
4:53 AM88 °FClear.5 mph22%29.87 "Hg10 mi
3:53 AM83 °FClear.No wind37%29.87 "Hg10 mi
2:53 AM89 °FClear.8 mph22%29.87 "Hg10 mi
1:53 AM86 °FClear.No wind33%29.88 "Hg10 mi
12:53 AM86 °FClear.No wind36%29.88 "Hg10 mi
11:53 PM
Sun, Aug 28
92 °FClear.5 mph23%29.88 "Hg10 mi
10:53 PM94 °FClear.5 mph20%29.88 "Hg10 mi
9:53 PM96 °FClear.3 mph21%29.88 "Hg10 mi
8:53 PM96 °FClear.6 mph22%29.86 "Hg10 mi
7:53 PM97 °FSunny.6 mph20%29.84 "Hg10 mi
6:53 PM100 °FSunny.9 mph19%29.82 "Hg10 mi
5:53 PM103 °FSunny.10 mph16%29.81 "Hg10 mi
4:53 PM104 °FSunny.9 mph16%29.82 "Hg10 mi
3:53 PM105 °FSunny.8 mph16%29.83 "Hg10 mi
2:53 PM105 °FScattered clouds.10 mph16%29.85 "Hg10 mi
1:53 PM103 °FScattered clouds.12 mph16%29.88 "Hg10 mi
12:53 PM101 °FSunny.10 mph19%29.90 "Hg10 mi
11:53 AM98 °FSunny.8 mph22%29.92 "Hg10 mi
Weather by CustomWeather, © 2016

See weather overviewHow to use our weather pages